TimeHST,TemperatureF,Dew PointF,Humidity,Sea Level PressureIn,VisibilityMPH,Wind Direction,Wind SpeedMPH,Gust SpeedMPH,PrecipitationIn,Events,Conditions,WindDirDegrees,DateUTC
12:53 AM,63.0,54.0,72,30.01,10.0,Calm,Calm,-,N/A,,Overcast,0,2013-04-01 10:53:00
1:53 AM,62.1,54.0,75,30.00,10.0,West,6.9,-,N/A,,Overcast,260,2013-04-01 11:53:00
2:08 AM,60.8,53.6,77,30.01,10.0,West,6.9,-,N/A,,Overcast,270,2013-04-01 12:08:00
2:53 AM,59.0,53.1,81,30.00,10.0,West,5.8,-,N/A,,Overcast,280,2013-04-01 12:53:00
3:53 AM,57.9,53.1,84,29.99,10.0,WSW,6.9,-,N/A,,Overcast,240,2013-04-01 13:53:00
4:53 AM,61.0,55.0,81,30.00,10.0,NNW,4.6,-,N/A,,Overcast,340,2013-04-01 14:53:00
5:53 AM,61.0,55.0,81,30.00,10.0,West,5.8,-,N/A,,Overcast,270,2013-04-01 15:53:00
6:53 AM,60.1,55.9,86,30.02,10.0,Calm,Calm,-,N/A,,Overcast,0,2013-04-01 16:53:00
7:53 AM,64.0,57.0,78,30.03,10.0,Calm,Calm,-,N/A,,Overcast,0,2013-04-01 17:53:00
8:53 AM,66.9,57.0,70,30.03,10.0,WSW,9.2,-,N/A,,Mostly Cloudy,240,2013-04-01 18:53:00
9:53 AM,69.1,53.1,57,30.03,10.0,NW,6.9,-,N/A,,Mostly Cloudy,320,2013-04-01 19:53:00
10:53 AM,69.1,55.0,61,30.04,10.0,NNW,9.2,-,N/A,,Overcast,340,2013-04-01 20:53:00
11:53 AM,72.0,55.0,55,30.01,10.0,NW,6.9,-,N/A,,Mostly Cloudy,310,2013-04-01 21:53:00
12:53 PM,71.1,55.9,59,29.99,10.0,South,5.8,-,N/A,,Overcast,180,2013-04-01 22:53:00
1:53 PM,73.9,55.9,53,29.97,10.0,SSE,12.7,-,N/A,,Overcast,160,2013-04-01 23:53:00
2:53 PM,73.0,55.9,55,29.95,10.0,SSE,11.5,-,N/A,,Overcast,150,2013-04-02 00:53:00
3:42 PM,68.0,53.6,60,29.96,10.0,NNW,12.7,26.5,N/A,,Overcast,340,2013-04-02 01:42:00
3:53 PM,69.1,54.0,58,29.96,10.0,NNW,15.0,24.2,N/A,,Overcast,340,2013-04-02 01:53:00
4:53 PM,70.0,48.9,47,29.95,10.0,NW,13.8,-,N/A,,Mostly Cloudy,320,2013-04-02 02:53:00
5:53 PM,71.1,52.0,51,29.97,10.0,NNW,10.4,-,N/A,,Mostly Cloudy,340,2013-04-02 03:53:00
6:53 PM,66.9,53.1,61,29.99,10.0,North,13.8,-,N/A,,Mostly Cloudy,350,2013-04-02 04:53:00
7:53 PM,66.9,54.0,63,30.01,10.0,North,9.2,-,N/A,,Overcast,350,2013-04-02 05:53:00
8:53 PM,66.0,53.1,63,30.03,10.0,NNW,11.5,-,N/A,,Mostly Cloudy,330,2013-04-02 06:53:00
9:53 PM,66.0,53.1,63,30.04,10.0,WNW,4.6,-,N/A,,Mostly Cloudy,290,2013-04-02 07:53:00
10:53 PM,66.0,55.0,68,30.05,10.0,NW,3.5,-,N/A,,Overcast,310,2013-04-02 08:53:00
11:53 PM,66.0,55.0,68,30.04,10.0,WNW,5.8,-,N/A,,Overcast,290,2013-04-02 09:53:00